Location: Arrington
(35.8681°N, 86.7092°W)
Time: 04:18:35
(UTC+00:00)

CENTAUR R/B - Pass Details

Date: 23 November 2019
Orbit: 779 x 1409 km, 63.4° (Epoch: 01 December)

Event Time Altitude Azimuth Distance (km) Brightness Sun altitude
Rises 01:54:52 0° 330° (NNW) 4,210 6.2 -40.1°
Reaches altitude 10° 01:57:36 10° 333° (NNW) 3,310 5.5 -40.6°
Enters shadow 02:01:07 29° 340° (NNW) 2,235 4.4 -41.3°
